This is the latest recevied weather packets stored in our database for station/object iw0uwf-4. If no packets are shown the sender has not sent any weather packets the latest 1 day(s).
| Time | Temp. | Humidity | Pressure | Rain* | Wind** | Luminosity | Snow |
|---|---|---|---|---|---|---|---|
| 1778001364 | 17.22° C | 75% | 1005.4 hPa | 0 mm | 1.34 m/s, 249° | 0 W/m² | - |
| 1778001304 | 17.22° C | 75% | 1005.2 hPa | 0 mm | 1.34 m/s, 269° | 0 W/m² | - |
| 1778001244 | 17.22° C | 74% | 1005.4 hPa | 0 mm | 1.34 m/s, 285° | 0 W/m² | - |
| 1778001184 | 17.22° C | 74% | 1005.4 hPa | 0 mm | 1.79 m/s, 292° | 0 W/m² | - |
| 1778001124 | 17.22° C | 74% | 1005.3 hPa | 0 mm | 1.79 m/s, 298° | 0 W/m² | - |
| 1778001064 | 17.22° C | 74% | 1005.2 hPa | 0 mm | 1.79 m/s, 305° | 0 W/m² | - |
| 1778001004 | 17.22° C | 74% | 1005.4 hPa | 0 mm | 1.79 m/s, 305° | 0 W/m² | - |
| 1778000943 | 17.22° C | 74% | 1005.4 hPa | 0 mm | 1.79 m/s, 304° | 0 W/m² | - |
| 1778000884 | 17.78° C | 71% | 1005.3 hPa | 0 mm | 1.79 m/s, 298° | 0 W/m² | - |
| 1778000823 | 17.78° C | 71% | 1005.3 hPa | 0 mm | 1.79 m/s, 296° | 0 W/m² | - |
| 1778000763 | 17.78° C | 71% | 1005.5 hPa | 0 mm | 1.79 m/s, 291° | 0 W/m² | - |
| 1778000703 | 17.78° C | 71% | 1005.3 hPa | 0 mm | 1.79 m/s, 285° | 0 W/m² | - |
| 1778000643 | 17.78° C | 71% | 1005.3 hPa | 0 mm | 1.34 m/s, 276° | 0 W/m² | - |
| 1778000583 | 17.78° C | 71% | 1005.4 hPa | 0 mm | 1.34 m/s, 264° | 0 W/m² | - |
| 1778000523 | 17.78° C | 71% | 1005.3 hPa | 0 mm | 1.34 m/s, 251° | 0 W/m² | - |
| 1778000463 | 17.78° C | 71% | 1005.3 hPa | 0 mm | 1.34 m/s, 239° | 0 W/m² | - |
| 1778000403 | 17.78° C | 71% | 1005.3 hPa | 0 mm | 0.89 m/s, 237° | 0 W/m² | - |
| 1778000343 | 17.78° C | 71% | 1005.3 hPa | 0 mm | 0.89 m/s, 234° | 0 W/m² | - |
| 1778000284 | 17.78° C | 71% | 1005.3 hPa | 0 mm | 0.89 m/s, 238° | 0 W/m² | - |
| 1778000228 | 17.78° C | 71% | 1005.4 hPa | 0 mm | 0.89 m/s, 223° | 0 W/m² | - |
| 1778000164 | 17.78° C | 71% | 1005.4 hPa | 0 mm | 0.89 m/s, 220° | 0 W/m² | - |
| 1778000104 | 17.78° C | 71% | 1005.5 hPa | 0 mm | 0.89 m/s, 217° | 0 W/m² | - |
| 1778000044 | 17.78° C | 71% | 1005.5 hPa | 0 mm | 0.89 m/s, 215° | 0 W/m² | - |
| 1777999984 | 17.78° C | 71% | 1005.4 hPa | 0 mm | 0.89 m/s, 213° | 0 W/m² | - |
| 1777999924 | 17.78° C | 71% | 1005.2 hPa | 0 mm | 0.89 m/s, 222° | 0 W/m² | - |
* Rain latest hour (hover to see other rain measurements)
** Current wind speed in m/s (hover to see current wind gust speed)